Location: Newark
(45.8667°N, 9.7333°E)
Time: 18:21:09
(UTC+00:00)

Vanguard 2 Rocket - Pass Details

Date: 31 January 2020
Orbit: 554 x 3326 km, 32.9° (Epoch: 16 February)

Event Time Altitude Azimuth Distance (km) Brightness Sun altitude
Rises 06:05:46 0° 248° (WSW) 2,872 - -7.2°
Exits shadow 06:06:00 - 246° (WSW) 2,800 9.0 -7.2°
Reaches altitude 10° 06:08:35 10° 225° (SW) 2,158 8.6 -6.7°
Maximum altitude 06:11:36 16° 186° (S) 2,024 8.9 -6.2°
Drops below altitude 10° 06:15:23 10° 150° (SSE) 2,821 10.3 -5.6°
Sets 06:19:58 0° 131° (SE) 4,313 11.9 -4.9°
